Weather History for Hyannis, MA

Change the Weather History Date:

Sunday, October 23, 2011

  Actual Average Record
Temperature  
Mean Temperature 50 °F -  
Max Temperature 59 °F 60 °F 80 °F (1947)
Min Temperature 41 °F 42 °F 22 °F (1960)
Degree Days  
Heating Degree Days 15    
Moisture  
Dew Point 43 °F    
Average Humidity 78    
Maximum Humidity 93    
Minimum Humidity 58    
Precipitation  
Precipitation 0.00 in - - ()
Sea Level Pressure  
Sea Level Pressure 30.10 in    
Wind  
Wind Speed 3 mph (NNW)    
Max Wind Speed 10 mph    
Max Gust Speed -    
Visibility 10 miles    
Events      
Averages and records for this station are not official NWS values.
T = Trace of Precipitation, MM = Missing Value Source: NWS Daily Summary

Daily Weather History Graph

Daily Weather History Graph

Search for Another Location

Airport:

Trip Planner

Search our weather history database for the weather conditions in past years. The results will help you decide how hot, cold, wet, or windy it might be!

Date:

Astronomy

Oct. 23, 2011 Rise Set
Actual Time 7:02 AM EDT 5:48 PM EDT
Civil Twilight 6:33 AM EDT 6:16 PM EDT
Nautical Twilight 6:01 AM EDT 6:48 PM EDT
Astronomical Twilight 5:29 AM EDT 7:21 PM EDT
Moon 3:02 AM EDT (10/23) 3:39 PM EDT (10/23)
Length of Visible Light 11h 42m
Length of Day
10h 46m
Waning Crescent, 14% of the Moon is Illuminated
Oct 23
Waning Crescent
Oct 26
New
Nov 2
First Quarter
Nov 10
Full
Nov 18
Last Quarter

Hourly Weather History & Observations

Time (EDT) Temp. Windchill Dew Point Humidity Pressure Visibility Wind Dir Wind Speed Gust Speed Precip Events Conditions
12:56 AM 46.9 °F - 41.0 °F 80% 30.06 in 10.0 mi NW 3.5 mph - N/A   Clear
1:56 AM 46.0 °F 43.9 °F 41.0 °F 83% 30.06 in 10.0 mi NW 4.6 mph - N/A   Clear
2:56 AM 46.9 °F - 39.9 °F 77% 30.07 in 10.0 mi WNW 3.5 mph - N/A   Clear
3:56 AM 46.0 °F 43.9 °F 39.9 °F 79% 30.06 in 10.0 mi WNW 4.6 mph - N/A   Clear
4:56 AM 45.0 °F 43.5 °F 39.9 °F 82% 30.07 in 10.0 mi WNW 3.5 mph - N/A   Clear
5:56 AM 41.0 °F - 37.9 °F 89% 30.07 in 10.0 mi Calm Calm - N/A   Clear
6:56 AM 41.0 °F - 39.0 °F 93% 30.08 in 10.0 mi Calm Calm - N/A   Clear
7:56 AM 44.1 °F - 42.1 °F 93% 30.09 in 10.0 mi Calm Calm - N/A   Clear
8:56 AM 53.1 °F - 46.9 °F 80% 30.11 in 10.0 mi NNW 4.6 mph - N/A   Clear
9:56 AM 55.0 °F - 48.0 °F 77% 30.12 in 10.0 mi NNW 4.6 mph - N/A   Clear
10:56 AM 55.9 °F - 45.0 °F 67% 30.13 in 10.0 mi NNW 5.8 mph - N/A   Partly Cloudy
11:56 AM 55.0 °F - 45.0 °F 69% 30.12 in 10.0 mi North 4.6 mph - N/A   Overcast
12:56 PM 55.9 °F - 45.0 °F 67% 30.11 in 10.0 mi North 3.5 mph - N/A   Overcast
1:56 PM 59.0 °F - 44.1 °F 58% 30.09 in 10.0 mi North 10.4 mph - N/A   Partly Cloudy
2:56 PM 59.0 °F - 44.1 °F 58% 30.08 in 10.0 mi NNW 4.6 mph - N/A   Partly Cloudy
3:56 PM 57.9 °F - 44.1 °F 60% 30.09 in 10.0 mi North 4.6 mph - N/A   Partly Cloudy
4:56 PM 55.0 °F - 44.1 °F 67% 30.09 in 10.0 mi NNE 3.5 mph - N/A   Mostly Cloudy
5:56 PM 54.0 °F - 45.0 °F 72% 30.10 in 10.0 mi Calm Calm - N/A   Mostly Cloudy
6:56 PM 48.0 °F - 44.1 °F 86% 30.11 in 10.0 mi Calm Calm - N/A   Clear
7:56 PM 45.0 °F - 42.1 °F 90% 30.13 in 10.0 mi Calm Calm - N/A   Clear
8:56 PM 45.0 °F - 42.1 °F 90% 30.14 in 10.0 mi Calm Calm - N/A   Overcast
9:56 PM 48.9 °F - 45.0 °F 86% 30.15 in 10.0 mi Calm Calm - N/A   Overcast
10:56 PM 50.0 °F - 42.1 °F 74% 30.15 in 10.0 mi Calm Calm - N/A   Overcast
11:56 PM 44.1 °F - 41.0 °F 89% 30.15 in 10.0 mi Calm Calm - N/A   Clear